{"data":{"norad_id":57088,"intl_designator":"2023-088AS","name":"STARLINK-6257","alt_names":[],"object_type":"PAYLOAD","status":"ACTIVE","operator":null,"country":"US","launch_date":"2023-06-22","launch_site_code":"AFWTR","launch_vehicle":null,"mission":null,"orbit_class":"UNKNOWN","rcs_meters":null,"size_class":null,"mass_kg":null,"dimensions":null,"purposes":["comms"],"wikipedia_slug":null,"has_3d_model":false,"image_url":null,"decayed_at":null,"tle_current":{"epoch":"2026-05-25T00:19:54.791904Z","epoch_age_seconds":77123,"freshness":"FRESH","line1":"1 57088U 23088AS  26145.01382861  .00001426  00000+0  61335-4 0  9990","line2":"2 57088  43.0038  25.0383 0001584 262.8809  97.1862 15.27578777162178","mean_motion":15.27578777,"eccentricity":0.0001584,"inclination_deg":43.0038,"raan_deg":25.0383,"arg_perigee_deg":262.8809,"mean_anomaly_deg":97.1862,"bstar":6.1335e-5,"rev_number":16217,"period_min":94.266824184871,"perigee_km":481.96594568638,"apogee_km":484.13957060176,"semimajor_km":6861.1897581441,"source":"CELESTRAK","updated_at":"2026-05-25T13:38:18.217133Z"}}}